{"data":{"norad_id":68174,"intl_designator":"2026-050H","name":"STARLINK-37078","alt_names":[],"object_type":"PAYLOAD","status":"ACTIVE","operator":null,"country":"US","launch_date":"2026-03-14","launch_site_code":"AFETR","launch_vehicle":null,"mission":null,"orbit_class":"UNKNOWN","rcs_meters":null,"size_class":null,"mass_kg":null,"dimensions":null,"purposes":["comms"],"wikipedia_slug":null,"has_3d_model":false,"image_url":null,"decayed_at":null,"tle_current":{"epoch":"2026-05-24T16:22:36.175296Z","epoch_age_seconds":99804,"freshness":"FRESH","line1":"1 68174U 26050H   26144.68236314  .00020764  00000+0  62399-3 0  9999","line2":"2 68174  53.1603 273.3681 0001133  78.3879 281.7250 15.34399428 12327","mean_motion":15.34399428,"eccentricity":0.0001133,"inclination_deg":53.1603,"raan_deg":273.3681,"arg_perigee_deg":78.3879,"mean_anomaly_deg":281.725,"bstar":0.00062399,"rev_number":1232,"period_min":93.847793066305,"perigee_km":461.92987292034,"apogee_km":463.48000770401,"semimajor_km":6840.8419403122,"source":"CELESTRAK","updated_at":"2026-05-25T13:38:21.853697Z"}}}